Regional Weather Roundup
Issued by NWS Albany, NY

Home | Current Version | Previous Version | Text Only | Print | Product List | Glossary On
Versions: 1 2 3 4 5 6 7 8 9 10 11 12 13 14 15 16 17 18 19 20 21 22 23 24 25 26 27
000
ASUS41 KALY 161410
RWRALY

NEW YORK STATE HOURLY WEATHER ROUNDUP
NATIONAL WEATHER SERVICE ALBANY NY
1000 AM EDT WED AUG 16 2017

NOTE: "FAIR" INDICATES FEW OR NO CLOUDS BELOW 12,000 FEET WITH NO
SIGNIFICANT WEATHER AND/OR NO OBSTRUCTIONS TO VISIBILITY.

NYZ032-033-038>043-046>054-057>066-NYZ062>081-082-084-161500-
EAST


CITY           SKY/WX    TMP DP  RH WIND       PRES   REMARKS
ALBANY         PTSUNNY   74  63  68 NW7       29.99S
GLENS FALLS    CLOUDY    69  61  75 NE9       29.99S
POUGHKEEPSIE   MOSUNNY   74  64  71 N7        29.98S
NEWBURGH       SUNNY     70  66  88 CALM      30.01R
MONTGOMERY     SUNNY     76  66  71 CALM      29.99R
WHITE PLAINS   SUNNY     77  64  64 N10       29.97R
ISLIP          MOSUNNY   78  66  66 N13       29.95R
NEW YORK CITY  MOSUNNY   77  66  68 N10       29.96R
CENTRAL PARK   SUNNY     75  65  70 VRB3      29.99S
$$

NYZ005>009-017-018-044>046-055-056-161500-
CENTRAL


CITY           SKY/WX    TMP DP  RH WIND       PRES   REMARKS
FULTON         MOSUNNY   70  61  73 CALM      30.06R
SYRACUSE       CLOUDY    67  65  93 NW7       30.05R
ROME           PTSUNNY   69  62  78 NW5       30.05R
ELMIRA         MOSUNNY   71  65  81 CALM      30.05S
BINGHAMTON     CLOUDY    65  62  90 N5        30.07S
MONTICELLO     PTSUNNY   68  63  84 NW9       30.06R
$$

NYZ026>034-041>043-087-161500-
NORTH


CITY           SKY/WX    TMP DP  RH WIND       PRES   REMARKS
WATERTOWN      SUNNY     66  58  75 N10       30.08R
FORT DRUM      NOT AVBL
OGDENSBURG     FAIR      67  53  61 N5        30.08R
MASSENA        SUNNY     67  52  58 VRB5      30.08R
SARANAC LAKE   PTSUNNY   59  54  83 NW5       30.06R
PLATTSBURGH    MOSUNNY   67  52  58 NW7       30.03R
$$

NYZ001>004-010>016-019>021-085-161500-
WEST


CITY           SKY/WX    TMP DP  RH WIND       PRES   REMARKS
NIAGARA FALLS  CLOUDY    72  32  23 E6        30.08S
BUFFALO        PTSUNNY   70  63  78 N5        30.08S
DUNKIRK        PTSUNNY   72  63  73 N8        30.09R
JAMESTOWN      MOSUNNY   64  61  88 VRB5      30.12S
WELLSVILLE     MOSUNNY   71  61  70 N6        30.11F
ROCHESTER      PTSUNNY   70  63  78 NE8       30.08S
PENN YAN       CLOUDY    69  61  75 CALM      30.08R
$$

             KEY
       WCI = WIND CHILL INDEX
       VSB = VISIBILITY
       HX  = HEAT INDEX
$$




USA.gov is the U.S. government's official web portal to all federal, state and local government web resources and services.